Regional Weather Roundup
Issued by NWS

Home | Current Version | Previous Version | Graphics & Text | Print | Product List | Glossary On
Versions: 1 2 3 4 5 6 7 8 9 10 11 12 13 14 15 16 17 18 19 20 21 22 23 24 25 26 27 28 29 30 31 32 33 34 35 36 37 38 39 40 41 42 43 44 45 46 47 48 49 50
000
ASUS43 KDTX 260901
RWRMI
MICHIGAN HOURLY REGIONAL WEATHER ROUNDUP
NATIONAL WEATHER SERVICE DETROIT/PONTIAC MI
500 AM EDT THU MAY 26 2016

NOTE: "FAIR" INDICATES FEW OR NO CLOUDS BELOW 12,000 FEET WITH NO
SIGNIFICANT WEATHER AND/OR OBSTRUCTION TO VISIBILITY.

MIZ047>049-052>055-059>063-066>070-074>076-081>083-261000-
SOUTHEAST LOWER MICHIGAN

CITY           SKY/WX    TMP DP  RH WIND       PRES   REMARKS
ADRIAN         MOCLDY    68  62  81 CALM      29.99F
ALMA           CLOUDY    63  62  99 CALM      29.94S
ANN ARBOR      CLOUDY    67  62  84 S3        29.97F
BAD AXE        MOCLDY    67  60  77 W6        29.95F
CARO           CLOUDY    64  60  87 CALM      29.93F
DETROIT CITY   CLOUDY    71  61  70 W8        29.98R
DETROIT        CLOUDY    70  61  73 W5        29.98F
FLINT          LGT RAIN  68  62  81 S9        29.94F
GROSSE ILE     MOCLDY    64  63  94 CALM      29.97S
HILLSDALE      CLOUDY    65  62  89 CALM      29.98F
HOWELL         CLOUDY    65  63  94 CALM      29.95F

CITY           SKY/WX    TMP DP  RH WIND       PRES   REMARKS
JACKSON        CLOUDY    64  62  93 CALM      29.96F
LAMBERTVILLE   CLOUDY    71  63  74 W3        30.00R
LANSING        CLOUDY    63  62  97 S6        29.95S
LAPEER         FAIR      68  59  72 CALM      29.96F
MASON          CLOUDY    64  61  91 CALM      29.95F
MONROE         CLOUDY    68  64  84 W3        29.99R
MT. CLEMENS    CLOUDY    71  62  74 SW6       29.96R
PONTIAC        CLOUDY    69  61  75 CALM      29.96F
PORT HOPE        N/A     68  59  73 W6        29.92F
PORT HURON     CLOUDY    66  59  77 S5        29.98R
TRI CITIES     CLOUDY    64  60  87 SE3       29.94F
MIDLAND        FAIR      60  58  94 CALM      29.93S
TROY           CLOUDY    72  61  68 CALM      29.99F
SAGINAW HB     LGT RAIN  64  59  82 CALM      29.94R
$$
MIZ043>046-050>051-056>058-064>065-071>073-077>080-261000-
SOUTHWEST LOWER MICHIGAN

CITY           SKY/WX    TMP DP  RH WIND       PRES   REMARKS
BATTLE CREEK   CLOUDY    63  61  93 S3        29.97R
BENTON HARBOR  PTCLDY    65  63  93 S6        29.94F
BIG RAPIDS     CLOUDY    63  63  99 S3        29.93F
COLDWATER      CLOUDY    65  62  87 SE5       29.98R
FREMONT        FAIR      63  63 100 SE5       29.92S
HOLLAND        PTCLDY    65  62  90 S9        29.93S
GRAND RAPIDS   MOCLDY    66  62  87 S5        29.93F
IONIA          CLOUDY    64  62  94 CALM      29.94R
KALAMAZOO      CLOUDY    64  61  90 S5        29.96R
LUDINGTON      MOCLDY    63  61  93 SE3       29.89F
MARSHALL       CLOUDY    64  62  94 S5        29.96S
MOUNT PLEASANT CLOUDY    61  61  99 CALM      29.93R FOG
MUSKEGON       PTCLDY    65  61  87 SE5       29.92S
SOUTH HAVEN    CLEAR     64  64  98 S5        29.94S
$$
MIZ016>042-261000-
NORTHERN LOWER MICHIGAN

CITY           SKY/WX    TMP DP  RH WIND       PRES   REMARKS
ALPENA         CLOUDY    56  52  86 SE3       29.94S
BEAVER ISLAND  CLOUDY    58  58  99 SE8       29.89F FOG
BELLAIRE       CLOUDY    61  58  90 CALM      29.91S
CADILLAC       CLOUDY    62  60  95 S6        29.92F
CHARLEVOIX     LGT RAIN  61  60  97 SE10      29.93F
FRANKFORT      CLOUDY    65  64  94 SE5       29.87F
GAYLORD        LGT RAIN  60  58  92 SW5       29.93F
GRAYLING       LGT RAIN  61  60  97 E6        29.92F
HARBOR SPRINGS LGT RAIN  60  59  97 E3        29.91F
HOUGHTON LAKE  LGT RAIN  62  60  93 CALM      29.93F
MANISTEE       CLOUDY    63  59  88 E3        29.89F
OSCODA         MOCLDY    56  52  85 CALM      29.93F
PELLSTON       LGT RAIN  59  58  96 CALM      29.92F
ROGERS CITY    CLOUDY    58  54  86 CALM      29.96R
TRAVERSE CITY  MOCLDY    65  62  90 CALM      29.89F
$$
MIZ007>008-015-261000-
EASTERN UPPER MICHIGAN

CITY           SKY/WX    TMP DP  RH WIND       PRES   REMARKS
KINROSS          N/A     57  55  94 E6        29.95F
MACKINAC ISLAN CLOUDY    54  54 100 E14G22    29.93F
NEWBERRY       CLOUDY    57  56  97 E9G16     29.88F
S. S. MARIE    LGT RAIN  58  55  90 SE6       29.96R
MUNISING         N/A     61  60  97 S8        29.81F
$$
MIZ004>006-011>014-085-261000-
CENTRAL UPPER MICHIGAN

CITY           SKY/WX    TMP DP  RH WIND       PRES   REMARKS
MANISTIQUE     CLOUDY    57  56  97 SE10      29.85F FOG
ESCANABA       CLOUDY    57  55  94 S10       29.83F
MENOMINEE      CLOUDY    61  59  94 MISG        N/A
SAWYER-GWINN   CLOUDY    58  57  96 S12       29.82S FOG
$$
MIZ001>003-009>011-084-261000-
WESTERN UPPER MICHIGAN

CITY           SKY/WX    TMP DP  RH WIND       PRES   REMARKS
IRON MOUNTAIN  CLOUDY    61  59  93 S7        29.81S FOG
HOUGHTON       FOG       55  54  96 E9        29.80F VSB 1/4
COPPER HARBOR    N/A     49  48  97 N6G26     29.80F
IRONWOOD       CLOUDY    52  52 100 W3        29.81S
$$

ABBREVIATIONS USED IN REMARKS
   TC - TEMPERATURE IN CELSIUS
  WCI - WIND CHILL INDEX
   HX - HEAT INDEX
  VSB - VISIBILITY





USA.gov is the U.S. government's official web portal to all federal, state and local government web resources and services.